Location: Newark
(1.4333°S, 50.7333°W)
Time: 17:07:12
(UTC+00:00)

Hubble Space Telescope - Visible Passes

Search period start: 01 October 2020 00:00
Search period end: 11 October 2020 00:00
Orbit: 536 x 540 km, 28.5° (Epoch: 30 September)

Date Brightness Start Highest point End Pass type
(mag) Time Alt. Az. Time Alt. Az. Time Alt. Az.
03 Oct 3.1 21:44:26 10° S 21:45:48 11° SSE 21:47:10 10° SE visible
03 Oct 3.5 23:23:01 10° SW 23:23:49 15° SW 23:23:49 15° SW visible
04 Oct 2.8 21:32:40 10° S 21:35:10 15° SSE 21:37:37 10° ESE visible
04 Oct 2.9 23:12:14 10° WSW 23:14:03 25° WSW 23:14:03 25° WSW visible
05 Oct 2.1 23:01:33 10° WSW 23:04:19 39° W 23:04:19 39° W visible
06 Oct 1.7 22:50:59 10° WSW 22:54:36 42° NW 22:54:36 42° NW visible
07 Oct 2.1 22:40:31 10° W 22:44:12 31° NNW 22:44:54 29° N visible
08 Oct 2.7 22:30:13 10° W 22:33:29 22° NNW 22:35:11 17° N visible
09 Oct 1.7 08:43:26 10° NW 08:47:22 44° NNE 08:51:19 10° ESE visible
09 Oct 3.1 22:20:07 10° WNW 22:22:47 16° NNW 22:25:26 10° NNE visible
10 Oct 1.1 08:32:33 10° NW 08:36:39 64° NNE 08:40:44 10° ESE visible
10 Oct 3.4 22:10:27 10° NW 22:12:06 12° NNW 22:13:45 10° N visible
